Home   Weather   Forest Home   Past weeks
Flag for USA

Past Weather in Forest Home, New York, USA — Yesterday and Last 2 Weeks

Currently: 52 °F. Clear. (Weather station: Binghamton Regional Airport, USA). See more current weather

Past Weather in Forest Home — Graph

°F

Forest Home Temperature Yesterday

Maximum temperature yesterday: 64 °F (at 2:53 pm)
Minimum temperature yesterday: 55 °F (at 10:53 pm)
Average temperature yesterday: 61 °F

High & Low Weather Summary for the Past Weeks

 TemperatureHumidityPressure
High85 °F (May 21, 2:53 pm)100% (May 15, 4:53 am)30.37 "Hg (May 15, 4:53 am)
Low42 °F (May 18, 5:53 am)33% (May 18, 3:53 pm)29.56 "Hg (May 16, 12:53 pm)
Average61 °F78%29.95 "Hg
* Reported May 13 11:53 pm — May 28 11:53 pm, Forest Home. Weather by CustomWeather, © 2022

Note: Actual official high and low records may vary slightly from our data, if they occured in-between our weather recording intervals... More about our weather records

Forest Home Weather History for the Previous 24 Hours

Scroll right to see more
 ConditionsComfort  
Time TempWeatherWind HumidityBarometerVisibility
11:53 pm
Sat, May 28
55 °FClear.5 mph77%29.95 "Hg10 mi
10:53 pm55 °FClear.3 mph83%29.95 "Hg10 mi
9:53 pm56 °FClear.8 mph81%29.94 "Hg10 mi
8:53 pm58 °FClear.6 mph81%29.90 "Hg10 mi
7:53 pm60 °FPassing clouds.5 mph78%29.89 "Hg10 mi
6:53 pm62 °FScattered clouds.10 mph70%29.86 "Hg10 mi
5:53 pm62 °FOvercast.9 mph75%29.84 "Hg10 mi
4:53 pm63 °FOvercast.10 mph73%29.82 "Hg10 mi
4:15 pm63 °FOvercast.9 mph73%29.83 "Hg10 mi
3:53 pm63 °FMostly cloudy.13 mph75%29.81 "Hg10 mi
2:53 pm64 °FMostly cloudy.10 mph78%29.78 "Hg10 mi
2:41 pm63 °FMore clouds than sun.10 mph78%29.80 "Hg10 mi
2:02 pm62 °FMostly cloudy.12 mph83%29.80 "Hg10 mi
1:15 pm62 °FMore clouds than sun.12 mph86%29.79 "Hg10 mi
1:07 pm62 °FMostly cloudy.7 mph86%29.80 "Hg10 mi
12:09 pm60 °FLight rain. Mostly cloudy.9 mph93%29.80 "Hg8 mi
11:53 am61 °FLight rain. Cloudy.9 mph93%29.78 "Hg8 mi
11:42 am60 °FLight rain. Fog.10 mph93%29.79 "Hg6 mi
10:53 am62 °FMostly cloudy.8 mph83%29.77 "Hg10 mi
10:29 am62 °FMostly cloudy.12 mph80%29.78 "Hg10 mi
10:19 am63 °FMostly cloudy.8 mph81%29.78 "Hg10 mi
8:53 am61 °FMostly cloudy.10 mph83%29.75 "Hg10 mi
7:53 am61 °FPartly sunny.7 mph87%29.73 "Hg10 mi
6:53 am59 °FPartly sunny.6 mph93%29.72 "Hg10 mi
6:00 am59 °FFog.3 mph100%29.73 "Hg3 mi
4:53 am59 °FPassing clouds.6 mph100%29.68 "Hg10 mi
4:08 am59 °FFog.5 mph100%29.71 "Hg5 mi
3:37 am60 °FMostly cloudy.7 mph96%29.72 "Hg10 mi
2:53 am60 °FPassing clouds.5 mph96%29.70 "Hg10 mi
2:20 am60 °FPassing clouds.6 mph96%29.73 "Hg10 mi
1:53 am60 °FLight rain. Passing clouds.6 mph100%29.72 "Hg10 mi
Weather by CustomWeather, © 2022

See weather overview